Tiempo cada hora Goianápolis

Hoy, 2 Agosto, Lunes

Tiempo Temperatura Precipitaciones Viento Presión Humedad
00:00 +18°C° 0 mm 2 mps 683 mmHg 59%
01:00 +17°C° 0 mm 2 mps 683 mmHg 61%
02:00 +17°C° 0 mm 2 mps 682 mmHg 63%
03:00 +17°C° 0 mm 2 mps 682 mmHg 66%
04:00 +16°C° 0 mm 2 mps 682 mmHg 67%
05:00 +16°C° 0 mm 2 mps 682 mmHg 69%
06:00 +15°C° 0 mm 2 mps 682 mmHg 70%
07:00 +17°C° 0 mm 3 mps 683 mmHg 63%
08:00 +18°C° 0 mm 3 mps 684 mmHg 55%
09:00 +20°C° 0 mm 4 mps 684 mmHg 48%
10:00 +22°C° 0 mm 4 mps 684 mmHg 42%
11:00 +25°C° 0 mm 3 mps 684 mmHg 37%
12:00 +27°C° 0 mm 3 mps 684 mmHg 32%
13:00 +28°C° 0 mm 3 mps 684 mmHg 29%
14:00 +29°C° 0 mm 3 mps 683 mmHg 27%
15:00 +30°C° 0 mm 2 mps 682 mmHg 24%
16:00 +28°C° 0 mm 2 mps 682 mmHg 28%
17:00 +26°C° 0 mm 2 mps 682 mmHg 31%
18:00 +24°C° 0 mm 1 mps 682 mmHg 34%
19:00 +23°C° 0 mm 1 mps 682 mmHg 37%
20:00 +22°C° 0 mm 1 mps 682 mmHg 40%
21:00 +21°C° 0 mm 1 mps 682 mmHg 43%
22:00 +19°C° 0 mm 2 mps 682 mmHg 45%
23:00 +18°C° 0 mm 2 mps 682 mmHg 48%

Mañana, 3 Agosto, Martes

Tiempo Temperatura Precipitaciones Viento Presión Humedad
00:00 +18°C° 0 mm 2 mps 682 mmHg 50%
01:00 +17°C° 0 mm 2 mps 681 mmHg 51%
02:00 +17°C° 0 mm 2 mps 681 mmHg 52%
03:00 +18°C° 0 mm 1 mps 680 mmHg 53%
04:00 +16°C° 0 mm 1 mps 680 mmHg 55%
05:00 +16°C° 0 mm 1 mps 681 mmHg 56%
06:00 +16°C° 0 mm 1 mps 681 mmHg 57%
07:00 +19°C° 0 mm 1 mps 682 mmHg 51%
08:00 +20°C° 0 mm 2 mps 682 mmHg 45%
09:00 +23°C° 0 mm 2 mps 683 mmHg 38%
10:00 +25°C° 0 mm 2 mps 683 mmHg 35%
11:00 +27°C° 0 mm 2 mps 683 mmHg 31%
12:00 +29°C° 0 mm 2 mps 684 mmHg 27%
13:00 +29°C° 0 mm 2 mps 683 mmHg 26%
14:00 +30°C° 0 mm 2 mps 682 mmHg 25%
15:00 +30°C° 0 mm 2 mps 681 mmHg 23%
16:00 +29°C° 0 mm 2 mps 681 mmHg 26%
17:00 +27°C° 0 mm 2 mps 681 mmHg 30%
18:00 +25°C° 0 mm 2 mps 681 mmHg 33%
19:00 +24°C° 0 mm 1 mps 681 mmHg 35%
20:00 +23°C° 0 mm 1 mps 681 mmHg 38%
21:00 +22°C° 0 mm 1 mps 681 mmHg 40%
22:00 +21°C° 0 mm 1 mps 681 mmHg 42%
23:00 +21°C° 0 mm 1 mps 681 mmHg 43%

Pasado mañana, 4 Agosto, Miércoles

Tiempo Temperatura Precipitaciones Viento Presión Humedad
00:00 +20°C° 0 mm 1 mps 681 mmHg 45%
01:00 +19°C° 0 mm 1 mps 681 mmHg 47%
02:00 +19°C° 0 mm 1 mps 681 mmHg 48%
03:00 +18°C° 0 mm 1 mps 680 mmHg 49%
04:00 +18°C° 0 mm 1 mps 680 mmHg 50%
05:00 +16°C° 0 mm 1 mps 680 mmHg 51%
06:00 +16°C° 0 mm 1 mps 680 mmHg 52%
07:00 +18°C° 0 mm 2 mps 681 mmHg 46%
08:00 +20°C° 0 mm 2 mps 682 mmHg 39%
09:00 +24°C° 0 mm 3 mps 683 mmHg 33%
10:00 +26°C° 0 mm 2 mps 683 mmHg 30%
11:00 +28°C° 0 mm 2 mps 683 mmHg 26%
12:00 +30°C° 0 mm 2 mps 683 mmHg 22%
13:00 +30°C° 0 mm 2 mps 683 mmHg 21%
14:00 +30°C° 0 mm 2 mps 682 mmHg 19%
15:00 +31°C° 0 mm 1 mps 681 mmHg 18%
16:00 +29°C° 0 mm 2 mps 681 mmHg 21%
17:00 +27°C° 0 mm 2 mps 681 mmHg 24%
18:00 +25°C° 0 mm 2 mps 681 mmHg 27%
19:00 +24°C° 0 mm 2 mps 681 mmHg 29%
20:00 +23°C° 0 mm 1 mps 681 mmHg 31%
21:00 +22°C° 0 mm 1 mps 682 mmHg 33%
22:00 +21°C° 0 mm 1 mps 682 mmHg 37%
23:00 +20°C° 0 mm 1 mps 682 mmHg 40%

5 Agosto, Jueves

Tiempo Temperatura Precipitaciones Viento Presión Humedad
00:00 +20°C° 0 mm 1 mps 682 mmHg 44%
01:00 +18°C° 0 mm 2 mps 681 mmHg 46%
02:00 +18°C° 0 mm 2 mps 681 mmHg 47%
03:00 +18°C° 0 mm 3 mps 681 mmHg 49%
04:00 +18°C° 0 mm 3 mps 681 mmHg 50%
05:00 +18°C° 0 mm 4 mps 681 mmHg 51%
06:00 +16°C° 0 mm 5 mps 681 mmHg 53%
07:00 +19°C° 0 mm 5 mps 682 mmHg 50%
08:00 +20°C° 0 mm 6 mps 683 mmHg 47%
09:00 +21°C° 0 mm 6 mps 683 mmHg 44%
10:00 +24°C° 0 mm 6 mps 684 mmHg 38%
11:00 +27°C° 0 mm 5 mps 684 mmHg 32%
12:00 +29°C° 0 mm 5 mps 684 mmHg 27%
13:00 +30°C° 0 mm 4 mps 683 mmHg 25%
14:00 +30°C° 0 mm 3 mps 683 mmHg 24%
15:00 +31°C° 0 mm 2 mps 682 mmHg 22%
16:00 +29°C° 0 mm 2 mps 682 mmHg 25%
17:00 +27°C° 0 mm 2 mps 682 mmHg 28%
18:00 +25°C° 0 mm 2 mps 682 mmHg 31%
19:00 +24°C° 0 mm 3 mps 682 mmHg 33%
20:00 +23°C° 0 mm 4 mps 682 mmHg 35%
21:00 +22°C° 0 mm 5 mps 683 mmHg 37%
22:00 +21°C° 0 mm 4 mps 683 mmHg 39%
23:00 +21°C° 0 mm 4 mps 683 mmHg 40%

6 Agosto, Viernes

Tiempo Temperatura Precipitaciones Viento Presión Humedad
00:00 +20°C° 0 mm 4 mps 683 mmHg 41%
01:00 +20°C° 0 mm 4 mps 682 mmHg 41%
02:00 +19°C° 0 mm 5 mps 682 mmHg 41%
03:00 +19°C° 0 mm 5 mps 682 mmHg 41%
04:00 +17°C° 0 mm 5 mps 682 mmHg 47%
05:00 +17°C° 0 mm 5 mps 682 mmHg 52%
06:00 +16°C° 0 mm 5 mps 682 mmHg 58%
07:00 +17°C° 0 mm 6 mps 683 mmHg 57%
08:00 +19°C° 0 mm 6 mps 683 mmHg 56%
09:00 +20°C° 0 mm 6 mps 684 mmHg 55%
10:00 +22°C° 0 mm 6 mps 684 mmHg 47%
11:00 +24°C° 0 mm 6 mps 684 mmHg 39%
12:00 +28°C° 0 mm 5 mps 684 mmHg 31%
13:00 +28°C° 0 mm 4 mps 684 mmHg 29%
14:00 +29°C° 0 mm 4 mps 683 mmHg 26%
15:00 +29°C° 0 mm 3 mps 683 mmHg 24%
16:00 +28°C° 0 mm 3 mps 682 mmHg 27%
17:00 +26°C° 0 mm 3 mps 682 mmHg 30%
18:00 +25°C° 0 mm 2 mps 682 mmHg 33%
19:00 +24°C° 0 mm 3 mps 682 mmHg 37%
20:00 +22°C° 0 mm 4 mps 682 mmHg 41%
21:00 +22°C° 0 mm 5 mps 683 mmHg 45%
22:00 +21°C° 0 mm 5 mps 682 mmHg 47%
23:00 +21°C° 0 mm 5 mps 682 mmHg 49%

7 Agosto, Sábado

Tiempo Temperatura Precipitaciones Viento Presión Humedad
00:00 +20°C° 0 mm 5 mps 682 mmHg 51%
01:00 +20°C° 0 mm 5 mps 682 mmHg 51%
02:00 +19°C° 0 mm 5 mps 682 mmHg 52%
03:00 +19°C° 0 mm 5 mps 681 mmHg 52%
04:00 +17°C° 0 mm 5 mps 681 mmHg 55%
05:00 +17°C° 0 mm 5 mps 681 mmHg 59%
06:00 +16°C° 0 mm 5 mps 682 mmHg 62%
07:00 +17°C° 0 mm 5 mps 682 mmHg 58%
08:00 +19°C° 0 mm 6 mps 683 mmHg 55%
09:00 +20°C° 0 mm 6 mps 684 mmHg 51%
10:00 +22°C° 0 mm 6 mps 684 mmHg 45%
11:00 +25°C° 0 mm 5 mps 684 mmHg 38%
12:00 +27°C° 0 mm 5 mps 684 mmHg 32%
13:00 +28°C° 0 mm 4 mps 683 mmHg 29%
14:00 +28°C° 0 mm 4 mps 683 mmHg 27%
15:00 +29°C° 0 mm 3 mps 682 mmHg 25%
16:00 +27°C° 0 mm 3 mps 682 mmHg 27%
17:00 +26°C° 0 mm 3 mps 681 mmHg 30%
18:00 +24°C° 0 mm 3 mps 681 mmHg 33%
19:00 +22°C° 0 mm 3 mps 682 mmHg 35%
20:00 +21°C° 0 mm 4 mps 682 mmHg 38%
21:00 +20°C° 0 mm 4 mps 682 mmHg 41%
22:00 +19°C° 0 mm 4 mps 682 mmHg 40%
23:00 +19°C° 0 mm 4 mps 682 mmHg 40%
Mostrar más

Necesitamos Su Consentimiento

Meteoprog y nuestros Proveedores de Servicios pueden almacenar y acceder a sus datos personales como cookies, identificadores de dispositivo u otras tecnologías similares de su dispositivo y procesar dichos datos para personalizar contenido y anuncios, además de ofrecer funciones de redes sociales y analizar el tráfico.

  • Almacenar y/o acceder a información en su dispositivo

    Se puede almacenar o acceder a cookies, identificadores de dispositivo u otra información de su dispositivo para los fines anteriormente indicados.

  • Anuncios y contenido personalizados, medición de anuncios y contenido, percepciones del público, y desarrollo de productos

    Los anuncios y el contenido pueden personalizarse en base a su perfil. Se pueden añadir más datos para personalizar mejor los anuncios y contenidos. Se puede medir el rendimiento de los anuncios y contenidos. Se puede obtener la percepción sobre el público que ha visto los anuncios y contenidos. Dichos datos pueden usarse para desarrollar o mejorar la experiencia del usuario, sistemas y software.

Al hacer clic en ‘Estoy De Acuerdo’ usted permitirá el uso de las cookies, identificadores de dispositivo, balizas web u otras tecnologías similares indicadas. Su configuración puede cambiarse desde el navegador de su dispositivo.

Para ciertos fines, los intereses legítimos pueden ser considerados por encima del consentimiento. Puede leer más sobre ello en nuestra Política de Privacidad y Cookies.